Miscellaneous Local Product
Issued by NWS North Platte, NE

Home | Current Version | Previous Version | Text Only | Print | Product List | Glossary On
Versions: 1 2 3 4 5 6 7 8 9 10 11 12 13 14 15 16 17 18 19 20 21 22 23 24 25 26 27 28 29 30 31 32 33 34 35 36 37 38 39 40 41 42 43 44 45 46 47 48 49 50
000
AXUS43 KLBF 300410
MISLBF


WESTERN AND NORTH CENTRAL NEBRASKA HOURLY WEATHER ROUNDUP
NATIONAL WEATHER SERVICE NORTH PLATTE NE
1100 PM CDT WED JUL 29 2015

***STATIONS NOT REPORTING VARIABLES SUCH AS SKY/WEATHER OR
PRESSURE ARE PROVIDED BY THE NEBRASKA DEPARTMENT OF
ROADS...RAWS...AND APRS NETWORKS...AND ARE NOT UNDER
NATIONAL WEATHER SERVICE QUALITY CONTROL***

...OBSERVATIONS IN AND NEAR THE EASTERN PANHANDLE OF NEBRASKA...

CITY           SKY/WX    TMP DP  RH WIND       PRES   REMARKS
PINE RIDGE     CLEAR     60  52  74 E6        30.22R
CHADRON        CLEAR     67  50  54 CALM      30.21R
ALLIANCE       CLEAR     63  51  65 S9        30.22R
SIDNEY         PTCLDY    68  42  38 S13       30.28R
BIG SPRINGS      N/A     68  49  50 S10         N/A
$$

...OBSERVATIONS IN NORTH CENTRAL NEBRASKA...

CITY           SKY/WX    TMP DP  RH WIND       PRES   REMARKS
VALENTINE      CLEAR     73  47  39 NE3       30.18R
THEDFORD       CLEAR     70  53  54 S8        30.23R
AINSWORTH      CLEAR     68  55  62 S9        30.18S
O`NEILL        CLEAR     67  56  67 SW5       30.17R
ORD            CLEAR     64  56  75 S8        30.19R
BROKEN BOW     CLEAR     61  56  83 S3        30.23R
SPRINGVIEW       N/A     74  57  55 CALM        N/A
CHAMBERS         N/A     69  53  55 S3          N/A
EWING            N/A     65  59  80 CALM        N/A
$$

...OBSERVATIONS IN SOUTHWEST NEBRASKA AND FAR NORTHEAST COLORADO...

CITY           SKY/WX    TMP DP  RH WIND       PRES   REMARKS
WRAY           FAIR      68  45  43 SE12      30.28R
HOLYOKE        FAIR      61  52  72 S8        30.28R
IMPERIAL       CLEAR     65  48  54 S9        30.26R
OGALLALA       PTCLDY    65  51  59 S5        30.25R
NORTH PLATTE   CLEAR     60  55  83 E5        30.24R
MCCOOK         CLEAR     67  56  67 E3        30.25R
LEXINGTON      CLEAR     65  59  81 S3        30.25R
PAXTON           N/A     64  56  76 SE3         N/A
BRADY            N/A     63  57  81 CALM        N/A
CALLAWAY         N/A     58  55  90 SE5         N/A
$$

...NORTH PLATTE AREA...

CITY           SKY/WX    TMP DP  RH WIND       PRES   REMARKS
AIRPORT        CLEAR     60  55  83 E5        30.24R
DOWNTOWN         N/A     71  53  53 CALM        N/A
HILLCREST        N/A     67  53  61 SE7         N/A
$$

...SOME WEATHER OBSERVATIONS FROM AROUND THE REGION...

CITY           SKY/WX    TMP DP  RH WIND       PRES   REMARKS
DENVER         MOCLDY    68  48  48 SE14      30.29R
LARAMIE        CLEAR     65  44  46 SE7       30.42R
CHEYENNE       PTCLDY    65  48  54 SE8       30.35R
SCOTTSBLUFF    PTCLDY    69  55  60 E7        30.22R
RAPID CITY     CLEAR     61  49  64 NE9       30.20R
PIERRE         CLEAR     67  47  48 NW9       30.09R
WINNER         FAIR      70  51  51 S6        30.15R
SIOUX FALLS    CLEAR     65  59  81 W3        30.10R
OMAHA          CLEAR     71  62  73 SE6       30.15R
GRAND ISLAND   CLEAR     66  57  72 SW6       30.22R
KANSAS CITY    PTCLDY    73  63  70 NE3       30.17R
WICHITA        PTCLDY    76  70  82 NE9       30.16R
HAYS           CLEAR     72  55  56 E8        30.21R
LIBERAL        PTCLDY    75  63  64 E9        30.22R
GOODLAND       CLEAR     60  51  72 SE6       30.29R
$$



USA.gov is the U.S. government's official web portal to all federal, state and local government web resources and services.